When you browse on this site, cookies collect data to enhance your experience and personalize the content and advertising you see.
Visit our Privacy Policy to learn more. By continuing to use the site, you agree to this use of cookies and data.
  • In Portugal
  • List of Countries
  • For 7 days
  • Water Temperature
  • Weather Map
  • Weather Widgets
  • user-avatar
    Login

    Hourly Weather Igls

    Today, 23 September, Monday

    Time Temperature Precipitation Wind Pressure Humidity
    00:00 +14°C° 0 mm 1 mps 682 mmHg 87%
    01:00 +13°C° 0 mm 1 mps 682 mmHg 87%
    02:00 +13°C° 0.1 mm 1 mps 682 mmHg 88%
    03:00 +14°C° 0.1 mm 1 mps 682 mmHg 88%
    04:00 +14°C° 0.1 mm 1 mps 682 mmHg 89%
    05:00 +14°C° 0.4 mm 1 mps 683 mmHg 90%
    06:00 +14°C° 0.4 mm 1 mps 683 mmHg 92%
    07:00 +14°C° 0.4 mm 1 mps 683 mmHg 94%
    08:00 +14°C° 1.2 mm 1 mps 683 mmHg 95%
    09:00 +14°C° 1.2 mm 2 mps 683 mmHg 96%
    10:00 +13°C° 1.2 mm 2 mps 684 mmHg 97%
    11:00 +13°C° 2.8 mm 2 mps 684 mmHg 97%
    12:00 +12°C° 2.8 mm 2 mps 684 mmHg 97%
    13:00 +12°C° 2.8 mm 2 mps 684 mmHg 97%
    14:00 +12°C° 1.6 mm 1 mps 684 mmHg 96%
    15:00 +12°C° 1.6 mm 1 mps 684 mmHg 95%
    16:00 +12°C° 1.6 mm 1 mps 684 mmHg 95%
    17:00 +11°C° 0.1 mm 1 mps 684 mmHg 96%
    18:00 +11°C° 0.1 mm 1 mps 684 mmHg 96%
    19:00 +11°C° 0.1 mm 1 mps 684 mmHg 97%
    20:00 +11°C° 0 mm 1 mps 685 mmHg 97%
    21:00 +10°C° 0 mm 1 mps 685 mmHg 96%
    22:00 +10°C° 0 mm 1 mps 685 mmHg 96%
    23:00 +10°C° 0 mm 1 mps 685 mmHg 95%

    Tomorrow, 24 September, Tuesday

    Time Temperature Precipitation Wind Pressure Humidity
    00:00 +9°C° 0 mm 1 mps 685 mmHg 94%
    01:00 +8°C° 0 mm 1 mps 685 mmHg 94%
    02:00 +8°C° 0 mm 1 mps 684 mmHg 93%
    03:00 +8°C° 0 mm 1 mps 684 mmHg 92%
    04:00 +8°C° 0 mm 1 mps 684 mmHg 91%
    05:00 +8°C° 0 mm 1 mps 684 mmHg 89%
    06:00 +9°C° 0 mm 1 mps 684 mmHg 87%
    07:00 +9°C° 0 mm 1 mps 684 mmHg 86%
    08:00 +11°C° 0 mm 1 mps 684 mmHg 79%
    09:00 +14°C° 0 mm 1 mps 684 mmHg 72%
    10:00 +16°C° 0 mm 1 mps 684 mmHg 65%
    11:00 +19°C° 0 mm 1 mps 684 mmHg 59%
    12:00 +20°C° 0 mm 1 mps 684 mmHg 52%
    13:00 +22°C° 0 mm 1 mps 684 mmHg 46%
    14:00 +21°C° 0 mm 1 mps 683 mmHg 48%
    15:00 +21°C° 0 mm 1 mps 683 mmHg 50%
    16:00 +20°C° 0 mm 1 mps 682 mmHg 52%
    17:00 +18°C° 0 mm 1 mps 682 mmHg 62%
    18:00 +15°C° 0 mm 1 mps 682 mmHg 73%
    19:00 +12°C° 0 mm 0 mps 682 mmHg 83%
    20:00 +12°C° 0 mm 1 mps 682 mmHg 85%
    21:00 +12°C° 0 mm 1 mps 682 mmHg 86%
    22:00 +12°C° 0 mm 1 mps 682 mmHg 88%
    23:00 +12°C° 0 mm 1 mps 682 mmHg 86%

    Day after tomorrow, 25 September, Wednesday

    Time Temperature Precipitation Wind Pressure Humidity
    00:00 +11°C° 0 mm 1 mps 681 mmHg 85%
    01:00 +11°C° 0 mm 1 mps 681 mmHg 83%
    02:00 +11°C° 0.5 mm 1 mps 681 mmHg 86%
    03:00 +11°C° 0.5 mm 1 mps 681 mmHg 89%
    04:00 +11°C° 0.5 mm 1 mps 681 mmHg 92%
    05:00 +12°C° 0.1 mm 1 mps 681 mmHg 91%
    06:00 +11°C° 0.1 mm 0 mps 681 mmHg 91%
    07:00 +12°C° 0.1 mm 0 mps 681 mmHg 90%
    08:00 +12°C° 0.3 mm 0 mps 681 mmHg 88%
    09:00 +14°C° 0.3 mm 1 mps 681 mmHg 86%
    10:00 +15°C° 0.3 mm 1 mps 682 mmHg 83%
    11:00 +15°C° 0.6 mm 1 mps 681 mmHg 84%
    12:00 +14°C° 0.6 mm 1 mps 681 mmHg 85%
    13:00 +14°C° 0.6 mm 2 mps 681 mmHg 86%
    14:00 +13°C° 0.6 mm 2 mps 681 mmHg 89%
    15:00 +12°C° 0.6 mm 2 mps 681 mmHg 92%
    16:00 +10°C° 0.6 mm 2 mps 680 mmHg 95%
    17:00 +11°C° 1.7 mm 1 mps 681 mmHg 95%
    18:00 +10°C° 1.7 mm 1 mps 681 mmHg 96%
    19:00 +10°C° 1.7 mm 1 mps 681 mmHg 97%
    20:00 +10°C° 0.4 mm 1 mps 682 mmHg 97%
    21:00 +10°C° 0.4 mm 1 mps 682 mmHg 96%
    22:00 +10°C° 0.4 mm 1 mps 682 mmHg 96%
    23:00 +10°C° 0 mm 1 mps 682 mmHg 96%

    26 September, Thursday

    Time Temperature Precipitation Wind Pressure Humidity
    00:00 +9°C° 0 mm 1 mps 682 mmHg 95%
    01:00 +9°C° 0 mm 1 mps 682 mmHg 95%
    02:00 +9°C° 0 mm 1 mps 682 mmHg 94%
    03:00 +9°C° 0 mm 1 mps 682 mmHg 93%
    04:00 +9°C° 0 mm 1 mps 683 mmHg 92%
    05:00 +9°C° 0.2 mm 1 mps 683 mmHg 92%
    06:00 +10°C° 0.2 mm 1 mps 683 mmHg 92%
    07:00 +11°C° 0.2 mm 1 mps 683 mmHg 92%
    08:00 +11°C° 0.4 mm 1 mps 684 mmHg 92%
    09:00 +12°C° 0.4 mm 1 mps 684 mmHg 92%
    10:00 +12°C° 0.4 mm 1 mps 685 mmHg 93%
    11:00 +13°C° 0.1 mm 1 mps 685 mmHg 89%
    12:00 +14°C° 0.1 mm 1 mps 685 mmHg 86%
    13:00 +15°C° 0.1 mm 1 mps 685 mmHg 83%
    14:00 +16°C° 0 mm 1 mps 685 mmHg 80%
    15:00 +18°C° 0 mm 1 mps 685 mmHg 77%
    16:00 +18°C° 0 mm 1 mps 686 mmHg 74%
    17:00 +15°C° 0 mm 0 mps 685 mmHg 80%
    18:00 +13°C° 0 mm 0 mps 685 mmHg 86%
    19:00 +11°C° 0 mm 0 mps 685 mmHg 93%
    20:00 +12°C° 0 mm 1 mps 685 mmHg 92%
    21:00 +11°C° 0 mm 1 mps 686 mmHg 91%
    22:00 +11°C° 0 mm 1 mps 686 mmHg 90%
    23:00 +11°C° 0 mm 1 mps 686 mmHg 90%

    27 September, Friday

    Time Temperature Precipitation Wind Pressure Humidity
    00:00 +11°C° 0 mm 1 mps 686 mmHg 89%
    01:00 +11°C° 0 mm 1 mps 686 mmHg 88%
    02:00 +11°C° 0 mm 1 mps 685 mmHg 87%
    03:00 +11°C° 0 mm 1 mps 685 mmHg 87%
    04:00 +11°C° 0 mm 1 mps 685 mmHg 86%
    05:00 +12°C° 0 mm 1 mps 685 mmHg 85%
    06:00 +12°C° 0 mm 1 mps 685 mmHg 84%
    07:00 +12°C° 0 mm 1 mps 685 mmHg 83%
    08:00 +15°C° 0 mm 1 mps 686 mmHg 75%
    09:00 +19°C° 0 mm 1 mps 686 mmHg 67%
    10:00 +21°C° 0 mm 1 mps 687 mmHg 59%
    11:00 +22°C° 0 mm 1 mps 687 mmHg 57%
    12:00 +23°C° 0 mm 1 mps 686 mmHg 54%
    13:00 +23°C° 0 mm 1 mps 686 mmHg 52%
    14:00 +22°C° 0.1 mm 1 mps 686 mmHg 58%
    15:00 +21°C° 0.1 mm 1 mps 685 mmHg 64%
    16:00 +20°C° 0.1 mm 1 mps 685 mmHg 69%
    17:00 +19°C° 0.3 mm 1 mps 685 mmHg 77%
    18:00 +16°C° 0.3 mm 1 mps 685 mmHg 85%
    19:00 +14°C° 0.3 mm 1 mps 685 mmHg 92%
    20:00 +14°C° 0.3 mm 1 mps 685 mmHg 93%
    21:00 +14°C° 0.3 mm 1 mps 685 mmHg 94%
    22:00 +13°C° 0.3 mm 1 mps 685 mmHg 95%
    23:00 +13°C° 0.2 mm 1 mps 685 mmHg 95%

    28 September, Saturday

    Time Temperature Precipitation Wind Pressure Humidity
    00:00 +13°C° 0.2 mm 1 mps 685 mmHg 95%
    01:00 +13°C° 0.2 mm 1 mps 684 mmHg 95%
    02:00 +13°C° 0.3 mm 1 mps 684 mmHg 95%
    03:00 +13°C° 0.3 mm 1 mps 684 mmHg 96%
    04:00 +13°C° 0.3 mm 1 mps 684 mmHg 96%
    05:00 +13°C° 1.2 mm 1 mps 684 mmHg 97%
    06:00 +13°C° 1.2 mm 1 mps 684 mmHg 97%
    07:00 +13°C° 1.2 mm 1 mps 684 mmHg 98%
    08:00 +14°C° 0.4 mm 1 mps 684 mmHg 97%
    09:00 +14°C° 0.4 mm 1 mps 685 mmHg 96%
    10:00 +14°C° 0.4 mm 1 mps 685 mmHg 95%
    11:00 +14°C° 0.4 mm 1 mps 685 mmHg 93%
    12:00 +15°C° 0.4 mm 1 mps 685 mmHg 91%
    13:00 +15°C° 0.4 mm 1 mps 684 mmHg 89%
    14:00 +15°C° 0.1 mm 1 mps 684 mmHg 90%
    15:00 +14°C° 0.1 mm 1 mps 684 mmHg 91%
    16:00 +14°C° 0.1 mm 1 mps 684 mmHg 91%
    17:00 +14°C° 0.1 mm 1 mps 684 mmHg 93%
    18:00 +12°C° 0.1 mm 0 mps 684 mmHg 95%
    19:00 +12°C° 0.1 mm 0 mps 684 mmHg 97%
    20:00 +12°C° 0.1 mm 0 mps 684 mmHg 96%
    21:00 +11°C° 0.1 mm 0 mps 684 mmHg 96%
    22:00 +11°C° 0.1 mm 0 mps 684 mmHg 96%
    23:00 +11°C° 0.1 mm 0 mps 684 mmHg 96%
    Show more